Home > Weather > Freehold > Past weeks

Flag for USA Weather for the Past 2 Weeks in Freehold, New Jersey, USA

Now
48 °F

Light rain. Fog.


Feels Like: 43 °F
Forecast: 45 / 51 °F
Wind: 12 mph from East

Location: Belmar-Farmdale

Current Time: May 1, 2016 at 1:52:38 PM

Latest Report: May 1, 2016 at 12:56 PM


Visibility: 6 mi

Pressure: 30.19 "Hg

Humidity: 93%

Dew Point: 46 °F

Location of FreeholdLocation

Historic Weather in Freehold — Graph

°F

Freehold Temperature Yesterday

Maximum temperature yesterday: 56 °F (at 1:56 PM)
Minimum temperature yesterday: 46 °F (at 5:56 AM)
Average temperature yesterday: 50 °F

High & Low Weather Summary for the Past Weeks

 TemperatureHumidityPressure
High82 °F (Apr 26, 2:15 PM)100% (Apr 23, 2:15 AM)30.48 "Hg (Apr 23, 2:15 AM)
Low37 °F (Apr 17, 4:56 AM)16% (Apr 20, 12:35 PM)29.62 "Hg (Apr 26, 1:56 PM)
Average57 °F56%30.28 "Hg
* Reported Apr 16 12:15 PM — May 1 12:56 PM, Freehold, Weather by CustomWeather, © 2016

Note: Actual official high and low records may vary slightly from our data, if they occured in-between our weather recording intervals... More about our weather records

Advertising

Freehold Weather History for the Previous 24 Hours

Scroll right to see more
 ConditionsComfort  
Time TempWeatherWind HumidityBarometerVisibility
12:56 PM
Sun, May 1
48 °FLight rain. Fog.12 mph93%30.19 "Hg6 mi
11:56 AM48 °FLight rain. Cloudy.7 mph93%30.21 "Hg8 mi
10:56 AM48 °FLight rain. Fog.8 mph93%30.22 "Hg4 mi
9:56 AM48 °FLight rain. Mostly cloudy.10 mph93%30.23 "Hg9 mi
8:56 AM48 °FLight rain. Overcast.5 mph93%30.25 "Hg8 mi
7:56 AM48 °FLight rain. Overcast.6 mph89%30.23 "Hg10 mi
6:56 AM48 °FLight rain. Overcast.3 mph80%30.24 "Hg10 mi
5:56 AM48 °FOvercast.No wind80%30.22 "Hg10 mi
4:56 AM48 °FOvercast.3 mph80%30.21 "Hg10 mi
3:56 AM48 °FOvercast.3 mph80%30.22 "Hg10 mi
2:56 AM48 °FMostly cloudy.5 mph80%30.22 "Hg10 mi
1:56 AM48 °FPassing clouds.7 mph77%30.23 "Hg10 mi
12:56 AM47 °FClear.5 mph77%30.26 "Hg10 mi
11:56 PM
Sat, Apr 30
47 °FClear.No wind77%30.27 "Hg10 mi
10:56 PM47 °FClear.3 mph74%30.27 "Hg10 mi
9:56 PM46 °FClear.5 mph71%30.27 "Hg10 mi
8:56 PM48 °FClear.5 mph66%30.27 "Hg10 mi
7:56 PM50 °FSunny.5 mph59%30.27 "Hg10 mi
6:56 PM53 °FSunny.7 mph51%30.27 "Hg10 mi
5:56 PM54 °FSunny.9 mph45%30.26 "Hg10 mi
4:56 PM55 °FSunny.9 mph44%30.25 "Hg10 mi
3:56 PM56 °FSunny.9 mph47%30.24 "Hg10 mi
2:56 PM56 °FPassing clouds.12 mph44%30.25 "Hg10 mi
1:56 PM56 °FSunny.10 mph49%30.24 "Hg10 mi
Weather by CustomWeather, © 2016

See weather overviewHow to use our weather pages